TimeMST,TemperatureF,Dew PointF,Humidity,Sea Level PressureIn,VisibilityMPH,Wind Direction,Wind SpeedMPH,Gust SpeedMPH,PrecipitationIn,Events,Conditions,WindDirDegrees,DateUTC
12:51 AM,23.0,21.2,93,29.67,10.0,WNW,5.8,-,N/A,,Partly Cloudy,290,2012-11-09 07:51:00
12:53 AM,23.0,21.9,96,29.72,10.0,Variable,3.5,-,N/A,,Scattered Clouds,0,2012-11-09 07:53:00
1:07 AM,24.8,23.0,93,29.68,10.0,WNW,8.1,-,N/A,,Mostly Cloudy,290,2012-11-09 08:07:00
1:53 AM,27.0,26.1,96,29.70,10.0,Variable,5.8,-,N/A,,Overcast,0,2012-11-09 08:53:00
2:19 AM,26.6,26.6,100,29.67,10.0,NW,6.9,-,N/A,,Overcast,310,2012-11-09 09:19:00
2:53 AM,28.0,27.0,96,29.71,10.0,NW,8.1,-,N/A,,Overcast,310,2012-11-09 09:53:00
3:53 AM,28.9,27.0,92,29.70,10.0,NW,8.1,-,N/A,,Overcast,310,2012-11-09 10:53:00
4:53 AM,30.0,28.0,92,29.70,10.0,NW,6.9,-,N/A,,Overcast,320,2012-11-09 11:53:00
5:53 AM,30.9,28.9,92,29.70,7.0,WNW,5.8,-,N/A,,Overcast,300,2012-11-09 12:53:00
6:53 AM,30.9,30.0,96,29.69,3.0,Calm,Calm,-,N/A,,Overcast,0,2012-11-09 13:53:00
7:12 AM,30.2,30.2,100,29.62,3.0,WNW,3.5,-,N/A,,Overcast,290,2012-11-09 14:12:00
7:27 AM,30.2,30.2,100,29.63,4.0,WNW,4.6,-,N/A,,Overcast,300,2012-11-09 14:27:00
7:46 AM,30.2,30.2,100,29.64,2.5,NW,4.6,-,N/A,,Overcast,310,2012-11-09 14:46:00
7:53 AM,30.9,30.0,96,29.71,2.5,NW,6.9,-,N/A,,Overcast,320,2012-11-09 14:53:00
8:24 AM,30.2,30.2,100,29.65,2.5,NW,9.2,-,N/A,,Overcast,320,2012-11-09 15:24:00
8:32 AM,30.2,30.2,100,29.65,4.0,NW,10.4,-,N/A,,Overcast,320,2012-11-09 15:32:00
8:53 AM,32.0,30.9,96,29.74,4.0,NW,11.5,-,N/A,,Overcast,320,2012-11-09 15:53:00
9:20 AM,32.0,30.2,93,29.67,5.0,NW,13.8,-,N/A,,Overcast,310,2012-11-09 16:20:00
9:53 AM,32.0,30.9,96,29.77,10.0,NW,12.7,-,N/A,,Overcast,320,2012-11-09 16:53:00
10:30 AM,33.8,30.2,87,29.68,10.0,NW,10.4,-,N/A,,Overcast,310,2012-11-09 17:30:00
10:39 AM,33.8,30.2,87,29.68,10.0,NW,12.7,-,N/A,,Overcast,310,2012-11-09 17:39:00
10:53 AM,33.1,30.9,92,29.78,10.0,NW,10.4,-,N/A,,Overcast,310,2012-11-09 17:53:00
11:33 AM,33.8,30.2,87,29.67,10.0,NW,12.7,-,N/A,,Overcast,310,2012-11-09 18:33:00
11:53 AM,34.0,30.9,89,29.76,10.0,NW,13.8,-,N/A,,Overcast,310,2012-11-09 18:53:00
12:53 PM,33.1,30.0,89,29.77,10.0,NW,12.7,-,N/A,,Overcast,320,2012-11-09 19:53:00
1:53 PM,33.1,30.9,92,29.76,5.0,NNW,6.9,-,0.00,Snow,Light Snow,340,2012-11-09 20:53:00
2:26 PM,32.0,30.2,93,29.65,2.0,NNW,9.2,-,0.00,Snow,Light Snow,340,2012-11-09 21:26:00
2:33 PM,32.0,30.2,93,29.66,0.8,NNW,8.1,-,0.01,Snow,Light Snow,330,2012-11-09 21:33:00
2:40 PM,32.0,30.2,93,29.66,0.5,NNW,8.1,-,0.02,Fog-Snow,Snow,330,2012-11-09 21:40:00
2:53 PM,32.0,30.9,96,29.75,0.5,NNW,5.8,-,0.04,Fog-Snow,Snow,330,2012-11-09 21:53:00
3:31 PM,30.2,30.2,100,29.69,0.2,NW,8.1,-,0.06,Fog-Snow,Heavy Snow,310,2012-11-09 22:31:00
3:41 PM,30.2,30.2,100,29.69,0.5,WNW,8.1,-,0.07,Fog-Snow,Snow,300,2012-11-09 22:41:00
3:49 PM,30.2,30.2,100,29.69,0.8,WNW,9.2,-,0.08,Snow,Light Snow,290,2012-11-09 22:49:00
3:53 PM,30.9,30.0,96,29.78,0.8,WNW,8.1,-,0.08,Snow,Light Snow,300,2012-11-09 22:53:00
4:00 PM,30.2,30.2,100,29.69,1.2,WNW,6.9,-,0.00,Snow,Light Snow,300,2012-11-09 23:00:00
4:15 PM,30.2,30.2,100,29.69,0.5,WNW,5.8,-,0.01,Fog-Snow,Snow,300,2012-11-09 23:15:00
4:27 PM,30.2,30.2,100,29.69,0.2,WNW,10.4,-,0.03,Fog-Snow,Snow,300,2012-11-09 23:27:00
4:34 PM,30.2,30.2,100,29.69,0.8,NW,9.2,-,0.04,Snow,Light Snow,310,2012-11-09 23:34:00
4:40 PM,30.2,30.2,100,29.68,1.0,NW,9.2,-,0.04,Snow,Light Snow,320,2012-11-09 23:40:00
4:50 PM,30.2,30.2,100,29.69,2.0,NW,9.2,-,0.04,Snow,Light Snow,310,2012-11-09 23:50:00
4:51 PM,30.9,30.0,96,29.78,2.0,NW,9.2,-,0.04,Snow,Light Snow,310,2012-11-09 23:51:00
5:19 PM,30.2,30.2,100,29.69,4.0,WNW,8.1,-,0.01,Snow,Light Snow,290,2012-11-10 00:19:00
5:37 PM,30.2,30.2,100,29.69,6.0,West,4.6,-,0.01,Snow,Light Snow,280,2012-11-10 00:37:00
5:53 PM,30.9,30.0,96,29.79,3.0,West,6.9,-,0.01,Snow,Light Snow,280,2012-11-10 00:53:00
6:00 PM,30.2,30.2,100,29.71,2.0,WNW,8.1,-,0.00,Snow,Light Snow,290,2012-11-10 01:00:00
6:04 PM,30.2,30.2,100,29.70,1.8,NW,9.2,-,0.00,Snow,Light Snow,310,2012-11-10 01:04:00
6:18 PM,30.2,30.2,100,29.69,0.8,NW,6.9,-,0.02,Snow,Light Snow,320,2012-11-10 01:18:00
6:29 PM,30.2,30.2,100,29.69,0.5,NW,4.6,-,0.03,Fog-Snow,Snow,310,2012-11-10 01:29:00
6:49 PM,30.2,30.2,100,29.69,1.0,WNW,8.1,-,0.07,Snow,Light Snow,290,2012-11-10 01:49:00
6:50 PM,30.9,30.0,96,29.78,1.0,WNW,8.1,-,0.07,Snow,Light Snow,290,2012-11-10 01:50:00
6:57 PM,30.2,30.2,100,29.69,1.5,WNW,10.4,-,0.01,Snow,Light Snow,300,2012-11-10 01:57:00
7:10 PM,30.2,30.2,100,29.70,1.2,WNW,8.1,-,0.01,Snow,Light Snow,290,2012-11-10 02:10:00
7:17 PM,30.2,30.2,100,29.70,0.8,WNW,9.2,-,0.02,Snow,Light Snow,300,2012-11-10 02:17:00
7:38 PM,30.2,30.2,100,29.69,0.8,NW,10.4,-,0.05,Snow,Light Snow,310,2012-11-10 02:38:00
7:49 PM,30.2,30.2,100,29.68,1.0,NW,10.4,-,0.06,Snow,Light Snow,310,2012-11-10 02:49:00
7:53 PM,30.0,30.0,100,29.76,1.0,NW,11.5,-,0.06,Snow,Light Snow,310,2012-11-10 02:53:00
8:33 PM,30.2,30.2,100,29.70,0.8,WNW,12.7,-,0.03,Snow,Light Snow,300,2012-11-10 03:33:00
8:41 PM,30.2,30.2,100,29.69,0.5,NW,12.7,-,N/A,Fog-Snow,Snow,310,2012-11-10 03:41:00
8:53 PM,30.0,30.0,100,29.77,0.5,NW,12.7,-,0.07,Fog-Snow,Snow,310,2012-11-10 03:53:00
9:05 PM,30.2,28.4,93,29.69,0.8,NW,17.3,-,0.02,Snow,Light Snow,320,2012-11-10 04:05:00
9:14 PM,30.2,28.4,93,29.70,1.0,NW,16.1,-,0.03,Snow,Light Snow,310,2012-11-10 04:14:00
9:30 PM,28.4,28.4,100,29.69,2.0,NW,16.1,-,0.03,Snow,Light Snow,310,2012-11-10 04:30:00
9:53 PM,28.9,27.0,92,29.79,2.5,WNW,17.3,-,0.03,Snow,Light Snow,300,2012-11-10 04:53:00
10:10 PM,28.4,26.6,93,29.68,1.0,NW,19.6,-,0.01,Snow,Light Snow,310,2012-11-10 05:10:00
10:33 PM,28.4,26.6,93,29.69,2.5,NW,20.7,-,0.01,Snow,Light Snow,310,2012-11-10 05:33:00
10:53 PM,28.0,26.1,92,29.78,2.5,NW,21.9,-,0.01,Snow,Light Snow,310,2012-11-10 05:53:00
11:25 PM,26.6,24.8,93,29.70,4.0,NW,17.3,27.6,0.00,Snow,Light Snow,310,2012-11-10 06:25:00
11:39 PM,26.6,24.8,93,29.71,1.8,NW,21.9,26.5,0.00,Snow,Light Snow,310,2012-11-10 06:39:00
11:51 PM,26.6,24.8,93,29.70,1.2,NW,20.7,-,0.01,Snow,Light Snow,310,2012-11-10 06:51:00
11:53 PM,26.1,25.0,96,29.79,1.0,NW,20.7,-,0.01,Snow,Light Snow,310,2012-11-10 06:53:00